Location: Hertford
(51.8000°N, 0.0667°W)
Time: 15:17:11
(UTC+00:00)

NOSS 8 (H) - Pass Details

Date: 18 September 2020
Orbit: 384 x 1790 km, 63.3° (Epoch: 27 October)

Event Time Altitude Azimuth Distance (km) Brightness Sun altitude
Rises 19:08:08 0° 214° (SW) 2,399 8.3 -10.1°
Reaches altitude 10° 19:10:18 10° 210° (SSW) 1,459 7.2 -10.5°
Maximum altitude 19:13:19 56° 131° (SE) 465 4.1 -10.9°
Drops below altitude 10° 19:16:19 10° 52° (NE) 1,439 6.6 -11.4°
Enters shadow 19:17:20 - 49° (NE) 1,882 7.2 -11.5°
